Probability
29 35 77 74 74 68 68 68 68 71 74 74 74 74 77 71 71 77 77 68 68 71 77 74 77 71 65 74 71 58 58 55 55 61 55 55 55 52 55 55 45 32 55
26 39 81 74 68 68 68 68 68 71 71 74 77 74 74 68 68 77 77 74 71 68 65 77 68 81 71 71 68 65 55 55 52 52 45 39 42 55 58 52 32 32 45
26 39 61 74 68 68 65 68 68 68 74 77 81 77 68 68 71 74 81 81 74 65 68 68 68 68 65 71 61 61 58 45 55 39 32 16 32 52 55 52 45 42 42
23 29 32 74 71 68 68 68 71 71 71 77 74 74 71 65 68 68 65 68 68 65 65 68 68 68 68 61 55 58 61 55 45 29 10 13 19 39 45 45 45 42 35
16 26 42 74 68 68 71 74 74 71 77 77 77 74 71 68 65 68 65 61 71 71 65 65 74 68 68 61 61 52 52 45 39 13 10 6 6 39 42 39 42 35 32
19 26 52 74 71 71 71 74 74 71 74 71 68 71 77 65 68 58 55 52 61 65 61 65 65 61 58 55 48 48 42 39 16 6 3 3 3 26 39 42 39 39 32
10 23 39 81 71 65 68 68 68 68 68 71 68 65 58 65 58 58 58 55 48 55 52 48 58 58 52 52 52 45 48 35 13 3 0 0 3 45 42 42 35 39 32
6 16 32 68 65 68 68 74 74 65 68 71 68 65 58 58 58 61 61 45 39 52 42 52 52 65 65 58 52 52 42 35 10 3 0 0 10 52 48 42 48 42 32
10 19 26 39 45 65 68 77 65 61 65 65 68 65 55 52 48 52 58 48 45 39 52 58 55 61 65 65 55 45 42 39 13 3 3 0 19 48 52 45 35 35 39
10 16 19 23 23 29 32 61 65 61 65 65 65 52 48 48 42 55 61 65 52 39 35 48 45 52 58 61 45 39 32 32 10 6 3 6 39 48 52 42 39 39 35
10 13 19 23 19 16 16 29 39 48 58 55 52 55 45 19 19 26 32 52 45 45 39 45 45 45 52 48 45 39 35 16 13 6 3 10 42 48 48 48 48 42 35
6 6 6 10 13 10 16 16 19 19 16 13 16 23 16 16 13 16 32 48 45 48 48 58 55 48 42 26 29 32 16 10 10 6 10 29 42 48 52 55 48 39 39
10 6 3 6 6 6 10 13 13 16 13 16 16 16 19 19 10 13 3 16 23 23 13 16 19 6 13 13 16 13 13 10 6 6 13 39 48 52 58 52 48 39 42
6 10 3 10 10 10 10 10 10 16 16 16 19 16 19 19 16 16 10 6 3 6 10 6 6 3 3 10 13 16 13 10 6 6 10 35 45 48 52 48 48 42 42
13 10 6 10 10 6 6 6 13 16 16 19 19 13 13 19 19 6 6 10 3 6 10 3 3 3 6 10 10 10 13 10 10 6 10 29 42 42 39 45 42 48 42
13 13 6 6 10 13 6 13 10 10 16 16 19 16 13 13 10 13 10 10 6 6 3 3 6 3 6 3 3 3 6 6 10 6 10 26 39 42 45 45 42 39 42
19 13 13 16 16 16 19 19 19 23 29 29 26 16 13 13 13 10 10 13 10 10 6 3 6 3 3 0 3 3 3 6 3 3 6 10 16 35 45 42 48 48 39
16 16 26 29 32 32 23 26 26 26 23 16 19 10 13 10 13 10 10 13 10 6 6 6 6 3 0 3 3 6 6 3 3 3 0 3 3 13 29 42 42 45 39
19 19 26 26 32 29 35 29 32 29 26 19 16 13 19 13 16 10 13 13 13 6 13 10 3 3 6 3 3 3 3 3 3 3 0 3 3 6 6 26 45 45 35
23 23 26 26 29 23 26 26 29 23 23 23 19 23 19 13 19 16 16 13 13 13 10 6 3 6 6 3 16 10 6 6 6 3 3 3 3 3 3 6 3 29 39
23 23 26 26 29 26 26 26 29 29 23 23 13 19 13 16 19 19 19 16 13 13 13 10 16 16 16 13 13 6 6 3 6 6 3 3 3 3 3 3 3 3 6
16 23 26 26 26 29 29 29 23 26 23 23 13 16 19 16 16 19 13 13 13 16 16 16 16 13 13 10 10 10 6 3 0 3 0 3 6 10 6 3 3 3 0
19 23 26 26 23 26 19 23 32 29 23 19 23 19 19 13 13 13 16 16 19 16 19 16 19 16 16 13 6 6 10 3 3 0 0 3 0 3 3 13 6 3 0
19 23 16 19 23 23 19 23 23 23 19 19 13 16 16 16 16 16 13 13 16 19 19 19 23 23 19 10 10 6 6 3 3 3 0 3 3 3 0 6 6 10 3
16 16 26 16 23 26 26 23 23 23 19 16 19 19 19 19 19 19 23 13 13 10 10 16 19 19 16 16 10 6 10 6 3 3 3 3 3 3 3 0 0 3 3
23 32 29 26 29 29 32 26 23 23 23 19 23 19 19 16 13 19 19 16 16 13 13 16 19 19 19 13 10 10 13 10 6 6 3 3 3 6 3 0 0 3 6
Height
5892 5891 5891 5890 5889 5889 5888 5887 5887 5886 5886 5885 5884 5883 5882 5881 5880 5878 5878 5877 5878 5878 5880 5881 5882 5882 5882 5882 5882 5882 5882 5882 5882 5882 5882 5882 5883 5883 5883 5883 5883 5883 5883
5893 5892 5892 5891 5890 5889 5889 5888 5888 5887 5886 5885 5884 5883 5882 5881 5879 5878 5878 5878 5878 5879 5880 5881 5882 5882 5882 5882 5882 5882 5882 5881 5881 5882 5882 5882 5882 5882 5882 5882 5882 5882 5882
5893 5893 5892 5891 5891 5890 5890 5889 5888 5887 5887 5885 5885 5884 5882 5881 5880 5878 5879 5879 5879 5880 5881 5881 5882 5882 5882 5882 5882 5881 5881 5881 5881 5881 5881 5881 5881 5882 5882 5882 5882 5882 5882
5894 5894 5893 5892 5892 5891 5890 5889 5889 5888 5887 5886 5885 5884 5883 5882 5880 5880 5880 5880 5881 5881 5882 5882 5882 5882 5882 5882 5882 5881 5881 5880 5881 5881 5880 5880 5880 5881 5881 5881 5881 5881 5882
5895 5894 5893 5893 5892 5891 5890 5890 5889 5888 5888 5887 5886 5885 5884 5883 5882 5882 5882 5882 5882 5882 5883 5883 5883 5883 5882 5882 5881 5881 5880 5880 5879 5879 5879 5879 5879 5880 5880 5880 5881 5881 5881
5896 5895 5894 5893 5893 5892 5891 5890 5889 5889 5888 5887 5886 5886 5885 5884 5884 5883 5883 5883 5883 5883 5883 5883 5883 5883 5882 5881 5880 5880 5879 5879 5878 5878 5878 5878 5878 5879 5879 5880 5880 5881 5881
5897 5896 5895 5894 5894 5892 5891 5890 5890 5889 5888 5888 5887 5887 5886 5885 5885 5884 5884 5884 5884 5884 5884 5884 5883 5883 5882 5880 5879 5878 5878 5878 5877 5877 5877 5877 5876 5877 5877 5878 5879 5879 5880
5898 5897 5896 5895 5894 5893 5892 5891 5890 5889 5889 5888 5888 5887 5887 5886 5886 5885 5885 5885 5885 5884 5884 5884 5883 5882 5881 5880 5878 5877 5877 5877 5876 5876 5875 5875 5875 5875 5876 5877 5878 5878 5879
5899 5898 5897 5896 5895 5894 5893 5892 5891 5890 5889 5889 5888 5887 5887 5887 5886 5886 5886 5885 5885 5884 5884 5884 5883 5882 5881 5880 5878 5877 5876 5876 5875 5874 5874 5873 5874 5874 5875 5876 5876 5877 5878
5900 5899 5898 5896 5895 5894 5893 5892 5891 5890 5890 5889 5888 5888 5888 5887 5887 5886 5886 5886 5885 5885 5884 5884 5883 5882 5880 5879 5878 5876 5876 5875 5874 5873 5872 5871 5872 5873 5874 5875 5875 5876 5876
5901 5900 5899 5897 5896 5895 5894 5892 5891 5891 5890 5889 5889 5888 5888 5887 5887 5886 5886 5886 5885 5885 5884 5883 5882 5881 5880 5879 5877 5876 5875 5874 5874 5873 5871 5871 5871 5872 5873 5874 5874 5874 5875
5903 5901 5899 5898 5896 5895 5894 5893 5892 5891 5890 5889 5889 5889 5888 5888 5887 5886 5886 5886 5885 5884 5883 5882 5881 5880 5880 5878 5877 5876 5875 5874 5873 5872 5871 5871 5871 5872 5872 5873 5873 5873 5874
5904 5902 5900 5899 5897 5896 5894 5893 5892 5891 5890 5890 5889 5889 5888 5888 5887 5886 5886 5885 5884 5884 5883 5882 5881 5880 5879 5878 5877 5876 5875 5874 5873 5872 5872 5871 5871 5872 5872 5872 5872 5872 5873
5905 5903 5901 5900 5898 5897 5895 5894 5893 5892 5891 5891 5890 5889 5888 5888 5887 5886 5885 5884 5884 5883 5882 5881 5879 5878 5878 5877 5876 5875 5874 5873 5872 5872 5872 5871 5871 5871 5872 5872 5872 5872 5872
5906 5904 5902 5901 5899 5898 5896 5895 5894 5893 5892 5891 5890 5889 5888 5888 5887 5886 5885 5884 5883 5882 5881 5880 5878 5877 5877 5876 5875 5874 5874 5873 5872 5872 5871 5871 5871 5871 5871 5871 5871 5871 5871
5907 5905 5903 5902 5900 5898 5897 5896 5895 5893 5892 5891 5890 5890 5889 5888 5887 5886 5885 5884 5883 5881 5880 5879 5878 5877 5875 5874 5874 5874 5873 5872 5872 5871 5871 5870 5870 5870 5870 5869 5869 5869 5869
5908 5906 5905 5903 5901 5899 5898 5896 5895 5894 5893 5892 5891 5890 5889 5888 5887 5886 5885 5884 5883 5881 5880 5878 5877 5876 5875 5874 5873 5873 5872 5872 5871 5870 5870 5869 5870 5869 5869 5868 5868 5868 5868
5910 5907 5906 5904 5902 5901 5899 5897 5896 5895 5894 5893 5891 5890 5889 5888 5887 5886 5885 5884 5882 5881 5879 5878 5876 5875 5874 5873 5872 5871 5871 5870 5870 5870 5869 5868 5868 5868 5867 5867 5867 5866 5866
5911 5909 5907 5905 5903 5902 5900 5898 5897 5895 5894 5893 5892 5891 5889 5888 5887 5886 5884 5883 5882 5880 5879 5877 5876 5875 5873 5872 5871 5870 5869 5869 5868 5868 5868 5867 5867 5867 5866 5865 5865 5865 5865
5912 5910 5908 5907 5905 5903 5901 5899 5897 5896 5895 5893 5892 5891 5890 5888 5887 5886 5884 5883 5881 5880 5878 5877 5875 5874 5872 5871 5870 5869 5868 5867 5867 5866 5866 5866 5865 5865 5864 5864 5863 5863 5863
5912 5910 5909 5907 5905 5904 5902 5900 5898 5897 5895 5894 5893 5891 5890 5888 5887 5885 5884 5882 5881 5879 5877 5876 5874 5873 5871 5870 5869 5868 5866 5865 5865 5864 5864 5863 5863 5863 5862 5862 5862 5861 5861
5913 5911 5909 5908 5906 5904 5902 5901 5899 5898 5896 5894 5893 5891 5889 5888 5886 5885 5883 5881 5880 5878 5876 5875 5873 5872 5870 5869 5867 5866 5865 5865 5863 5863 5862 5861 5861 5860 5860 5860 5860 5860 5860
5913 5911 5909 5908 5906 5904 5903 5901 5899 5898 5896 5894 5892 5890 5889 5887 5886 5884 5883 5881 5879 5877 5875 5874 5872 5871 5869 5867 5865 5864 5863 5862 5861 5861 5860 5859 5858 5858 5858 5858 5858 5858 5857
5913 5911 5909 5907 5906 5904 5902 5901 5899 5897 5895 5893 5891 5889 5888 5886 5884 5883 5881 5879 5878 5876 5874 5872 5871 5869 5867 5865 5863 5862 5861 5860 5859 5859 5858 5857 5857 5857 5856 5856 5856 5856 5855
5912 5910 5909 5907 5905 5903 5902 5900 5898 5896 5894 5892 5890 5888 5886 5885 5883 5881 5879 5878 5876 5874 5872 5871 5869 5867 5865 5864 5862 5860 5859 5857 5857 5857 5857 5856 5855 5855 5855 5854 5854 5853 5853
5911 5909 5908 5906 5904 5902 5901 5899 5897 5895 5893 5891 5889 5887 5884 5883 5881 5879 5877 5876 5874 5872 5870 5869 5867 5865 5863 5861 5860 5858 5857 5856 5855 5854 5854 5854 5853 5852 5852 5851 5851 5851 5851
Wind_Speed
8 8 8 8 7 6 5 5 5 4 4 5 4 3 3 2 2 1 2 2 2 3 3 3 3 2 2 1 2 2 2 3 3 4 4 5 5 5 4 4 4 4 4
8 8 8 7 7 6 6 5 5 5 5 4 4 4 3 3 3 2 3 3 3 3 3 3 3 2 1 1 2 2 2 2 4 3 3 5 5 4 4 4 4 4 5
9 8 7 7 7 7 6 6 5 5 5 4 4 4 4 4 2 3 4 5 4 4 4 3 2 2 1 1 2 2 2 2 3 2 2 4 4 4 3 4 4 4 5
9 8 7 7 7 7 6 6 5 5 5 4 4 5 5 5 4 4 5 5 5 5 4 3 2 2 1 1 1 2 2 3 3 2 3 4 4 4 4 4 4 5 5
9 9 8 8 8 7 6 6 6 5 5 4 5 5 5 5 5 6 5 5 5 5 4 3 2 2 2 1 1 1 2 2 3 3 3 4 4 4 4 4 5 5 5
10 10 9 8 8 8 7 6 6 6 5 5 5 5 5 5 5 5 5 5 4 4 3 3 2 2 2 2 2 2 2 2 3 3 4 5 4 5 5 5 6 6 5
10 10 9 8 7 8 7 6 6 6 5 5 5 5 5 4 5 5 5 4 4 3 3 2 2 3 3 3 2 2 2 3 3 3 4 4 5 5 6 6 5 6 6
10 10 10 9 8 8 7 6 6 6 6 5 5 4 4 4 4 4 4 3 3 3 2 2 2 3 3 3 3 3 3 4 4 4 4 5 5 6 6 6 5 6 5
11 11 11 10 9 8 7 6 6 6 6 6 5 5 5 4 3 3 3 2 2 2 2 2 3 4 4 4 3 2 2 3 2 2 3 4 5 6 6 6 5 6 6
12 11 11 10 9 8 7 6 5 5 5 5 5 5 5 4 3 3 2 1 1 1 1 2 3 3 4 3 4 3 2 2 2 2 2 4 6 6 5 6 5 5 6
13 12 11 11 9 9 8 7 6 5 6 5 5 5 5 4 3 2 2 1 1 1 1 2 3 3 3 3 4 3 1 1 2 2 2 3 5 6 6 6 6 5 6
13 13 12 11 10 10 9 8 7 6 6 6 5 5 5 5 4 2 2 1 0 1 2 2 3 3 4 3 3 2 2 1 1 1 1 3 4 5 6 7 6 5 5
13 14 13 12 11 10 10 10 9 7 6 6 6 5 5 5 5 3 2 2 2 2 2 3 3 3 4 3 3 3 2 2 1 1 1 3 4 4 5 6 6 5 5
13 14 13 12 11 10 10 10 9 8 8 7 6 6 5 5 5 4 4 4 3 3 3 3 4 4 4 4 4 3 2 2 1 2 2 3 3 4 4 5 5 5 6
13 13 13 13 12 12 11 10 10 9 8 8 7 6 5 4 4 4 4 4 3 3 3 3 3 4 4 4 4 3 2 2 1 2 2 2 3 4 5 5 5 6 6
13 12 12 12 12 12 12 10 10 9 8 8 8 7 5 5 4 4 4 4 4 3 3 4 4 4 4 5 4 3 2 3 2 3 3 3 4 5 6 6 6 6 7
13 12 12 12 11 11 11 10 9 9 9 8 8 7 6 5 5 5 4 4 5 5 4 4 4 4 5 5 4 4 3 3 4 4 3 4 3 4 5 6 6 6 7
13 12 12 12 12 11 11 10 9 9 9 9 8 8 7 7 6 6 6 5 5 5 6 6 5 5 5 5 5 5 4 4 3 3 2 2 2 3 4 6 7 7 7
12 12 11 12 12 11 11 11 9 9 9 9 9 8 8 8 7 7 7 6 6 6 6 7 6 6 6 6 5 6 5 5 4 4 4 4 4 4 4 5 7 7 7
12 12 11 11 12 11 11 11 10 9 9 9 9 9 8 8 8 7 7 7 7 7 7 6 6 7 6 6 6 6 6 5 5 5 5 5 5 5 5 5 6 7 7
11 11 10 10 10 11 11 11 10 9 9 9 9 8 8 9 9 8 8 7 7 7 7 7 6 7 6 6 6 6 6 6 5 6 6 6 6 5 5 5 5 6 7
10 10 10 10 10 10 11 11 10 9 9 9 9 10 10 9 9 8 8 8 7 7 7 7 7 7 7 7 7 7 6 6 6 6 6 6 6 6 6 6 6 6 6
9 9 10 9 9 10 10 10 10 10 10 10 10 10 10 10 10 9 9 9 8 8 8 8 8 7 8 8 8 8 7 7 7 7 6 6 6 7 7 6 7 8 8
9 9 10 10 10 10 10 10 11 11 11 11 11 11 11 10 10 9 9 9 9 9 9 9 9 9 9 9 9 8 7 7 7 7 7 7 8 8 8 7 7 8 8
10 10 10 11 10 10 10 10 11 11 11 12 11 12 12 11 11 10 10 10 10 9 9 9 9 9 9 9 8 8 7 7 7 7 7 7 8 9 9 9 8 8 9
10 11 11 11 11 10 10 11 12 12 12 13 13 13 13 13 12 12 11 10 10 10 10 10 10 11 10 10 9 9 8 8 8 8 8 8 9 10 11 10 10 10 10
Wind_Direction
47 48 47 42 40 34 31 42 40 34 42 39 35 29 19 18 5 34 105 117 134 143 154 134 119 111 119 154 160 186 207 217 187 186 189 180 176 176 183 189 181 182 181
50 47 47 45 44 41 35 38 34 34 37 32 36 32 25 21 13 35 108 121 128 135 137 123 106 85 85 152 169 183 192 197 189 180 175 166 170 181 195 193 183 175 172
46 39 42 44 43 41 37 36 39 36 34 33 37 31 30 29 40 86 105 111 119 120 110 106 96 72 69 128 162 172 169 163 176 177 172 173 173 188 202 195 188 171 170
41 37 39 41 41 39 38 37 44 41 36 41 44 46 38 46 78 97 103 113 113 113 107 100 80 63 68 108 149 174 176 190 198 210 214 199 197 196 195 192 194 188 182
37 37 43 44 43 37 38 40 46 40 43 49 45 49 45 54 70 89 99 108 110 109 108 99 77 50 48 46 27 229 217 218 211 218 222 212 208 204 192 191 197 199 196
37 37 42 40 38 38 38 43 44 44 52 50 47 50 52 60 71 80 94 96 101 96 88 82 69 44 31 6 328 283 256 226 223 234 227 215 211 204 201 197 200 204 202
40 37 38 35 37 37 42 48 47 50 53 51 49 51 51 58 65 74 91 94 96 91 82 71 52 33 13 358 325 283 259 238 245 242 225 222 214 210 211 209 217 211 204
42 42 41 41 42 39 43 46 49 48 51 59 58 51 56 61 68 76 82 88 92 89 76 51 27 9 6 350 321 291 271 263 263 239 227 218 215 214 212 216 221 212 208
42 41 38 38 40 41 40 45 46 43 47 52 55 60 60 62 66 76 73 74 77 76 50 19 10 6 360 355 342 320 280 264 264 236 236 225 218 214 207 206 206 208 209
40 41 38 35 40 41 42 44 44 40 46 51 50 56 49 57 63 62 67 69 69 54 9 352 352 351 350 358 356 336 306 278 270 242 229 212 207 208 203 200 197 198 203
38 38 37 35 40 43 44 46 43 41 46 54 53 54 48 45 48 49 47 69 33 351 345 339 341 345 333 331 342 337 304 277 297 264 213 189 192 199 202 196 196 197 203
38 36 39 41 43 45 47 48 44 42 50 57 59 55 52 49 47 48 50 50 347 317 315 322 328 328 320 326 349 346 341 288 260 257 209 182 183 187 196 198 199 204 204
39 39 43 45 46 46 45 47 48 50 54 54 50 49 47 41 39 35 9 351 335 322 313 310 308 307 301 305 328 340 353 332 267 233 215 194 192 195 201 202 204 202 200
39 39 42 47 48 45 41 41 47 52 53 48 44 41 40 34 25 20 13 356 336 325 311 307 302 298 292 300 313 326 328 310 262 242 228 201 196 199 205 212 213 202 200
40 40 41 46 48 46 43 45 50 51 49 45 44 44 44 37 23 12 7 4 349 342 339 330 321 303 292 295 299 311 309 297 271 262 248 228 213 216 215 215 217 215 208
39 41 43 46 47 45 43 46 48 47 44 41 43 45 42 35 28 17 9 7 0 346 335 329 334 333 318 303 293 291 290 284 269 268 252 237 233 230 227 218 223 223 218
37 40 44 47 47 45 42 44 46 42 41 41 40 36 35 29 23 15 11 4 358 354 343 327 318 324 324 317 310 303 286 274 270 272 250 241 248 248 237 229 226 227 223
37 42 43 44 45 46 42 41 41 40 38 38 36 33 29 27 25 20 11 5 357 352 346 340 322 317 318 315 312 307 295 277 265 266 259 252 263 259 243 233 235 232 231
39 42 43 42 41 41 40 39 37 36 34 33 32 28 25 22 18 10 4 359 353 347 343 342 334 324 321 317 310 301 289 278 266 254 254 249 258 266 262 244 238 236 235
35 35 36 37 37 35 33 31 29 30 29 31 30 28 24 20 13 4 359 356 353 351 349 345 336 333 323 318 314 305 290 276 268 257 256 253 254 259 259 250 242 238 239
32 31 31 31 31 30 28 27 26 26 26 25 23 19 16 15 14 10 2 356 352 347 346 342 338 331 325 317 317 313 300 281 267 258 250 247 250 252 253 253 255 247 244
27 23 25 25 24 25 25 24 23 19 14 11 9 9 7 3 2 3 1 357 351 343 340 338 335 333 325 316 312 310 303 292 279 269 256 249 250 246 248 250 252 249 246
18 14 13 16 15 14 15 16 14 8 5 0 358 359 357 355 352 352 350 349 348 343 338 333 329 327 324 316 311 304 299 294 281 276 273 268 261 250 248 251 247 246 248
3 1 357 359 2 3 4 6 5 3 360 357 356 354 350 347 345 342 340 339 339 338 335 330 327 325 322 320 315 308 297 292 283 275 273 268 265 260 259 262 262 262 261
350 349 347 347 349 350 351 353 354 354 353 350 349 347 346 346 342 337 333 332 333 328 329 328 328 325 323 321 316 313 306 296 287 283 272 264 263 263 263 265 267 264 267
340 342 341 340 341 340 339 341 342 342 342 341 340 338 337 336 334 331 325 325 328 329 329 325 319 317 314 312 310 308 307 305 291 285 277 271 266 264 265 266 262 265 268